Stations météo

réclame
Mon MeteoGroup
Gela, Italie (16453): Température de l'air & dewpoint: 11.12.2018 20:00:00 - 17.12.2018 20:00:00 (CET)Gela, Italie (16453): Vitesse du vent: 11.12.2018 20:00:00 - 17.12.2018 20:00:00 (CET)Gela, Italie (16453): Direction du vent: 11.12.2018 20:00:00 - 17.12.2018 20:00:00 (CET)Gela, Italie (16453): reduced air pressure: 11.12.2018 20:00:00 - 17.12.2018 20:00:00 (CET)Gela, Italie (16453): visibility: 11.12.2018 20:00:00 - 17.12.2018 20:00:00 (CET)Gela, Italie (16453): Ensoleillement: 11.12.2018 20:00:00 - 17.12.2018 20:00:00 (CET)
Date & Time tt [°C] td [°C] ff [km/h] ff [knt] dd ppp [hPa] vv [km] sd [min]
17.12.2018 20:00:00 - - - - - - - -
17.12.2018 19:00:00 14,6 6,6 21 11 W 1016,2 10 0
17.12.2018 18:00:00 15,0 7,0 22 12 WNW - 10 -
17.12.2018 17:00:00 15,0 8,0 29 16 W - 10 -
17.12.2018 16:00:00 15,8 8,3 39 21 W 1014,5 10 60
17.12.2018 15:00:00 16,0 9,0 34 18 W - 10 -
17.12.2018 14:00:00 16,0 11,0 39 21 W - 10 -
17.12.2018 13:00:00 17,0 12,1 31 17 W 1015,3 10 60
17.12.2018 12:00:00 17,0 12,0 28 15 W - 10 -
17.12.2018 11:00:00 16,0 12,0 22 12 W - 10 -
17.12.2018 10:00:00 14,8 11,0 8 4 WSW 1017,4 10 48
17.12.2018 09:00:00 14,0 11,0 4 2 SW - 10 -
17.12.2018 08:00:00 13,0 11,0 5 3 E - 10 -
17.12.2018 07:00:00 13,4 10,4 8 4 ENE 1017,1 10 0
17.12.2018 06:00:00 - - - - - - - -
17.12.2018 05:00:00 - - - - - - - -
17.12.2018 04:00:00 - - - - - - - -
17.12.2018 03:00:00 - - - - - - - -
17.12.2018 02:00:00 - - - - - - - -
17.12.2018 01:00:00 - - - - - - - -
17.12.2018 00:00:00 - - - - - - - -
16.12.2018 23:00:00 - - - - - - - -
16.12.2018 22:00:00 - - - - - - - -
16.12.2018 21:00:00 - - - - - - - -
16.12.2018 20:00:00 - - - - - - - -
16.12.2018 19:00:00 13,8 6,9 9 5 WNW 1020,9 20 0
16.12.2018 18:00:00 14,0 6,0 9 5 WNW - 10 -
16.12.2018 17:00:00 15,0 6,0 16 9 W - 10 -
16.12.2018 16:00:00 15,0 5,2 18 10 W 1020,0 25 60
16.12.2018 15:00:00 15,0 5,0 15 8 W - 10 -
16.12.2018 14:00:00 15,0 4,0 15 8 W - 10 -
16.12.2018 13:00:00 15,6 4,6 13 7 W 1019,7 25 60
16.12.2018 12:00:00 14,0 5,0 9 5 NW - 10 -
16.12.2018 11:00:00 13,0 5,0 11 6 NW - 10 -
16.12.2018 10:00:00 12,8 4,7 8 4 WNW 1020,2 25 60
16.12.2018 09:00:00 12,0 5,0 0 0 N - 10 -
16.12.2018 08:00:00 12,0 4,0 8 4 W - 10 -
16.12.2018 07:00:00 12,2 4,2 11 6 NNW 1018,4 25 0
16.12.2018 06:00:00 - - - - - - - -
16.12.2018 05:00:00 - - - - - - - -
16.12.2018 04:00:00 - - - - - - - -
16.12.2018 03:00:00 - - - - - - - -
16.12.2018 02:00:00 - - - - - - - -
16.12.2018 01:00:00 - - - - - - - -
16.12.2018 00:00:00 - - - - - - - -
15.12.2018 23:00:00 - - - - - - - -
15.12.2018 22:00:00 - - - - - - - -
15.12.2018 21:00:00 - - - - - - - -
15.12.2018 20:00:00 - - - - - - - -
15.12.2018 19:00:00 13,0 3,9 11 6 NW 1014,9 10 0
15.12.2018 18:00:00 13,0 4,0 9 5 NW - 10 -
15.12.2018 17:00:00 13,0 5,0 11 6 N - 10 -
15.12.2018 16:00:00 14,0 5,9 11 6 N 1013,0 20 0
15.12.2018 15:00:00 15,0 7,0 18 10 NNW - 10 -
15.12.2018 14:00:00 15,0 7,0 15 8 NNW - 10 -
15.12.2018 13:00:00 15,0 7,8 18 10 NNW 1011,3 20 12
15.12.2018 12:00:00 15,0 8,0 24 13 N - 10 -
15.12.2018 11:00:00 16,0 10,0 8 4 NNW - 10 -
15.12.2018 10:00:00 15,0 9,6 5 3 N 1011,0 18 60
15.12.2018 09:00:00 13,0 9,0 0 0 N - 10 -
15.12.2018 08:00:00 12,0 9,0 5 3 NNE - 10 -
15.12.2018 07:00:00 12,0 8,7 8 4 NNE 1009,3 14 0
15.12.2018 06:00:00 - - - - - - - -
15.12.2018 05:00:00 - - - - - - - -
15.12.2018 04:00:00 - - - - - - - -
15.12.2018 03:00:00 - - - - - - - -
15.12.2018 02:00:00 - - - - - - - -
15.12.2018 01:00:00 - - - - - - - -
15.12.2018 00:00:00 - - - - - - - -
14.12.2018 23:00:00 - - - - - - - -
14.12.2018 22:00:00 - - - - - - - -
14.12.2018 21:00:00 - - - - - - - -
14.12.2018 20:00:00 - - - - - - - -
14.12.2018 19:00:00 16,0 11,0 4 2 E 1007,6 12 0
14.12.2018 18:00:00 16,0 11,0 8 4 SSE - 10 -
14.12.2018 17:00:00 17,0 12,0 8 4 SSE - 10 -
14.12.2018 16:00:00 17,0 11,5 8 4 SSE 1007,6 10 0
14.12.2018 15:00:00 17,0 11,0 9 5 SSE - 10 -
14.12.2018 14:00:00 17,0 11,0 11 6 S - 10 -
14.12.2018 13:00:00 16,6 11,5 13 7 S 1008,4 10 24
14.12.2018 12:00:00 17,0 12,0 13 7 SSW - 10 -
14.12.2018 11:00:00 17,0 12,0 9 5 SSE - 10 -
14.12.2018 10:00:00 17,2 11,9 8 4 SE 1009,9 10 48
14.12.2018 09:00:00 15,0 11,0 9 5 ENE - 10 -
14.12.2018 08:00:00 14,0 11,0 11 6 ENE - 10 -
14.12.2018 07:00:00 13,8 10,4 13 7 E 1010,2 15 0
14.12.2018 06:00:00 - - - - - - - -
14.12.2018 05:00:00 - - - - - - - -
14.12.2018 04:00:00 - - - - - - - -
14.12.2018 03:00:00 - - - - - - - -
14.12.2018 02:00:00 - - - - - - - -
14.12.2018 01:00:00 - - - - - - - -
14.12.2018 00:00:00 - - - - - - - -
13.12.2018 23:00:00 - - - - - - - -
13.12.2018 22:00:00 - - - - - - - -
13.12.2018 21:00:00 - - - - - - - -
13.12.2018 20:00:00 - - - - - - - -
13.12.2018 19:00:00 15,0 11,2 4 2 WNW 1012,9 12 0
13.12.2018 18:00:00 15,0 11,0 0 0 N - 10 -
13.12.2018 17:00:00 15,0 11,0 5 3 W - 10 -
13.12.2018 16:00:00 15,4 11,0 8 4 W 1013,2 10 18
13.12.2018 15:00:00 16,0 11,0 13 7 W - 10 -
13.12.2018 14:00:00 16,0 12,0 15 8 W - 10 -
13.12.2018 13:00:00 16,2 12,0 16 9 W 1013,6 10 60
13.12.2018 12:00:00 16,0 12,0 22 12 W - 10 -
13.12.2018 11:00:00 15,0 12,0 9 5 W - 10 -
13.12.2018 10:00:00 13,8 11,1 2 1 NNE 1015,0 10 18
13.12.2018 09:00:00 13,0 11,0 4 2 E - 10 -
13.12.2018 08:00:00 13,0 10,0 5 3 NNE - 8 -
13.12.2018 07:00:00 12,8 10,2 5 3 NE 1015,0 7 0
13.12.2018 06:00:00 - - - - - - - -
13.12.2018 05:00:00 - - - - - - - -
13.12.2018 04:00:00 - - - - - - - -
13.12.2018 03:00:00 - - - - - - - -
13.12.2018 02:00:00 - - - - - - - -
13.12.2018 01:00:00 - - - - - - - -
13.12.2018 00:00:00 - - - - - - - -
12.12.2018 23:00:00 - - - - - - - -
12.12.2018 22:00:00 - - - - - - - -
12.12.2018 21:00:00 - - - - - - - -
12.12.2018 20:00:00 - - - - - - - -
12.12.2018 19:00:00 13,6 10,8 5 3 SSE 1018,4 10 0
12.12.2018 18:00:00 13,0 10,0 4 2 SSW - 10 -
12.12.2018 17:00:00 14,0 10,0 9 5 SW - 6 -
12.12.2018 16:00:00 14,0 10,2 0 0 N 1018,4 8 0
12.12.2018 15:00:00 14,0 10,0 0 0 N - 8 -
12.12.2018 14:00:00 14,0 9,0 4 2 SW - 8 -
12.12.2018 13:00:00 14,0 8,0 4 2 SW 1019,3 12 0
12.12.2018 12:00:00 14,0 8,0 0 0 N - 10 -
12.12.2018 11:00:00 14,0 8,0 0 0 N - 10 -
12.12.2018 10:00:00 12,6 6,4 5 3 ENE 1020,4 20 60
12.12.2018 09:00:00 12,0 6,0 4 2 ENE - 10 -
12.12.2018 08:00:00 10,0 5,0 5 3 NE - 10 -
12.12.2018 07:00:00 10,4 6,2 5 3 ENE 1019,4 18 0
12.12.2018 06:00:00 - - - - - - - -
12.12.2018 05:00:00 - - - - - - - -
12.12.2018 04:00:00 - - - - - - - -
12.12.2018 03:00:00 - - - - - - - -
12.12.2018 02:00:00 - - - - - - - -
12.12.2018 01:00:00 - - - - - - - -
12.12.2018 00:00:00 - - - - - - - -
11.12.2018 23:00:00 - - - - - - - -
11.12.2018 22:00:00 - - - - - - - -
11.12.2018 21:00:00 - - - - - - - -
11.12.2018 20:00:00 - - - - - - - -

tt = Température de l'air
td = dewpoint
ff = Vitesse du vent
dd = Direction du vent
ppp = reduced air pressure
vv = visibility
sd = Ensoleillement

stations d'obs. à proximité